Location: N�rnberg
(49.4489°N, 11.0797°E)
Time: 08:27:43
(UTC+02:00)

ISS - Pass Details

Date: 12 February 2018
Orbit: 402 x 406 km, 51.6° (Epoch: 21 June)

Event Time Altitude Azimuth Distance (km) Brightness Sun altitude
Rises 18:26:42 0° 286° (WNW) 2,320 1.3 -9.7°
Reaches altitude 10° 18:29:03 10° 270° (W) 1,458 0.5 -10.1°
Maximum altitude 18:31:39 22° 218° (SW) 939 -1.4 -10.5°
Drops below altitude 10° 18:34:14 10° 165° (SSE) 1,453 -1.1 -10.9°
Enters shadow 18:37:09 -2° 147° (SSE) 2,527 0.0 -11.4°
